Weather History for South Bend, IN

Change the Weather History Date:

Saturday, December 10, 2011

  Actual Average Record
Temperature  
Mean Temperature 17 °F 30 °F  
Max Temperature 23 °F 37 °F 64 °F (1971)
Min Temperature 11 °F 24 °F -10 °F (1958)
Degree Days  
Heating Degree Days 48 35  
Month to date heating degree days 317 331  
Since 1 July heating degree days 1440 1600  
Cooling Degree Days 0 0  
Month to date cooling degree days 0 0  
Year to date cooling degree days 969 773  
Moisture  
Dew Point 6 °F    
Average Humidity 61    
Maximum Humidity 76    
Minimum Humidity 45    
Precipitation  
Precipitation 0.00 in 0.09 in 1.39 in (1971)
Month to date precipitation 0.53 0.91  
Year to date precipitation 44.39 36.30  
Snow  
Snow 0.00 in 0.60 in 5.80 in (1997)
Month to date snowfall 2.9 4.4  
Since 1 July snowfall 2.9 9.6  
Snow Depth 2.00 in    
Sea Level Pressure  
Sea Level Pressure 30.50 in    
Wind  
Wind Speed 9 mph (SSW)    
Max Wind Speed 15 mph    
Max Gust Speed 17 mph    
Visibility 10 miles    
Events      
T = Trace of Precipitation, MM = Missing Value Source: NWS Daily Summary

Daily Weather History Graph

Daily Weather History Graph

Search for Another Location

Airport:

Trip Planner

Search our weather history database for the weather conditions in past years. The results will help you decide how hot, cold, wet, or windy it might be!

Date:

Astronomy

Dec. 10, 2011 Rise Set
Actual Time 8:01 AM EST 5:14 PM EST
Civil Twilight 7:29 AM EST 5:46 PM EST
Nautical Twilight 6:54 AM EST 6:20 PM EST
Astronomical Twilight 6:21 AM EST 6:54 PM EST
Moon 5:27 PM EST (12/10) 8:01 AM EST (12/10)
Length of Visible Light 10h 16m
Length of Day
9h 13m
Full, 100% of the Moon is Illuminated
Dec 10
Full
Dec 17
Last Quarter
Dec 24
New
Jan 1
First Quarter
Jan 9
Full

Hourly Weather History & Observations

Time (EST) Temp. Windchill Dew Point Humidity Pressure Visibility Wind Dir Wind Speed Gust Speed Precip Events Conditions
12:54 AM 17.1 °F 5.8 °F 9.0 °F 71% 30.44 in 10.0 mi SW 9.2 mph - N/A   Clear
1:54 AM 17.1 °F 6.6 °F 8.1 °F 68% 30.44 in 10.0 mi SW 8.1 mph - N/A   Clear
2:54 AM 15.1 °F 5.2 °F 7.0 °F 70% 30.45 in 10.0 mi SW 6.9 mph - N/A   Clear
3:54 AM 15.1 °F 3.3 °F 7.0 °F 70% 30.46 in 10.0 mi SSW 9.2 mph - N/A   Clear
4:54 AM 12.0 °F 2.7 °F 6.1 °F 77% 30.46 in 10.0 mi SSW 5.8 mph - N/A   Clear
5:54 AM 12.0 °F 0.5 °F 6.1 °F 77% 30.47 in 10.0 mi SSW 8.1 mph - N/A   Clear
6:54 AM 12.0 °F -0.4 °F 6.1 °F 77% 30.49 in 10.0 mi SW 9.2 mph - N/A   Clear
7:54 AM 10.9 °F 0.2 °F 5.0 °F 77% 30.51 in 10.0 mi SW 6.9 mph - N/A   Clear
8:54 AM 10.9 °F -0.8 °F 5.0 °F 77% 30.53 in 10.0 mi SSW 8.1 mph - N/A   Clear
9:54 AM 15.1 °F 1.8 °F 7.0 °F 70% 30.55 in 10.0 mi SSW 11.5 mph - N/A   Clear
10:54 AM 18.0 °F 6.9 °F 6.1 °F 60% 30.57 in 10.0 mi SSW 9.2 mph - N/A   Clear
11:54 AM 19.4 °F 7.9 °F 3.2 °F 49% 30.52 in 10.0 mi WSW 10.4 mph - N/A   Clear
12:54 PM 21.9 °F 11.7 °F 3.9 °F 46% 30.55 in 10.0 mi SW 9.2 mph - N/A   Clear
1:54 PM 21.9 °F 9.8 °F 7.0 °F 53% 30.53 in 10.0 mi SSW 12.7 mph - N/A   Clear
2:54 PM 21.9 °F 9.2 °F 6.1 °F 51% 30.51 in 10.0 mi SSW 13.8 mph - N/A   Clear
3:54 PM 21.9 °F 10.4 °F 3.9 °F 46% 30.50 in 10.0 mi SSW 11.5 mph - N/A   Clear
4:54 PM 21.9 °F 11.7 °F 3.9 °F 46% 30.51 in 10.0 mi SW 9.2 mph - N/A   Clear
5:54 PM 19.9 °F 11.1 °F 6.1 °F 55% 30.52 in 10.0 mi SW 6.9 mph - N/A   Clear
6:54 PM 19.0 °F 8.2 °F 6.1 °F 57% 30.51 in 10.0 mi South 9.2 mph - N/A   Clear
7:54 PM 18.0 °F 8.7 °F 5.0 °F 57% 30.52 in 10.0 mi South 6.9 mph - N/A   Clear
8:54 PM 19.0 °F 9.0 °F 6.1 °F 57% 30.52 in 10.0 mi SSW 8.1 mph - N/A   Clear
9:54 PM 19.0 °F 9.0 °F 7.0 °F 59% 30.52 in 10.0 mi SSW 8.1 mph - N/A   Clear
10:54 PM 19.0 °F 8.2 °F 7.0 °F 59% 30.51 in 10.0 mi SSW 9.2 mph - N/A   Clear
11:54 PM 19.0 °F 7.5 °F 7.0 °F 59% 30.50 in 10.0 mi South 10.4 mph - N/A   Clear